Total_Precipitation_Accumulation
2.47 2.74 2.88 3.12 3.44 3.76 4.05 4.37 4.87 5.13 4.98 4.99 4.90 4.74 4.42 4.22 3.84 3.37 3.02 2.96 2.98 3.23 3.74 3.43 3.82 3.73 3.92 4.03 3.98 4.31 4.43 4.06 4.12 4.09 3.62 2.88 2.42 2.38 2.36 2.41 2.65 2.66 2.72
2.28 2.55 2.57 2.81 3.04 3.57 4.09 4.44 4.49 4.45 4.28 4.52 4.92 5.15 5.06 4.52 3.89 3.51 3.35 2.98 2.92 3.06 3.26 3.55 3.47 3.51 3.72 3.71 3.77 4.11 4.08 3.66 3.82 4.09 4.17 3.40 3.04 2.51 1.95 2.28 2.45 2.55 2.90
1.84 2.15 2.18 2.27 2.49 3.00 3.54 3.69 3.59 3.54 3.43 3.56 3.97 4.28 4.54 4.29 3.97 3.64 3.36 2.97 2.86 2.85 2.97 3.23 3.26 3.26 3.12 3.36 3.61 3.59 3.64 3.59 3.57 3.64 4.08 3.77 3.34 2.83 2.24 2.10 2.19 2.54 2.83
1.68 1.84 1.89 1.95 2.01 2.15 2.40 2.61 2.84 2.96 2.97 3.01 3.24 3.47 3.72 3.76 3.70 3.63 3.29 2.92 2.63 2.60 2.72 2.81 2.81 2.87 2.82 3.12 2.87 2.97 3.32 3.58 3.45 3.38 3.33 3.39 3.53 3.41 2.75 2.25 2.14 2.40 2.57
1.42 1.56 1.65 1.66 1.72 1.89 2.15 2.37 2.66 2.83 2.90 2.88 2.97 3.18 3.50 3.54 3.35 3.22 3.27 3.04 2.76 2.50 2.44 2.61 2.68 2.69 2.61 2.72 2.78 3.13 3.09 3.23 3.25 3.26 3.26 3.36 3.38 3.21 3.03 2.66 2.53 2.48 2.19
1.21 1.42 1.53 1.59 1.64 1.73 1.98 2.21 2.46 2.47 2.58 2.64 2.64 2.70 2.91 3.06 2.92 2.76 2.77 2.65 2.54 2.43 2.35 2.42 2.61 2.52 2.48 2.59 2.70 2.83 2.83 2.91 3.02 3.02 3.02 3.27 3.15 3.09 3.20 2.87 2.69 2.59 2.25
1.03 1.22 1.41 1.43 1.57 1.69 1.80 1.94 2.10 2.21 2.23 2.27 2.20 2.17 2.25 2.42 2.41 2.33 2.36 2.28 2.10 1.99 2.07 2.25 2.36 2.30 2.30 2.37 2.54 2.59 2.70 2.83 2.85 2.78 2.79 2.85 2.87 3.00 3.17 3.27 2.93 2.66 2.29
0.81 0.92 1.08 1.19 1.33 1.49 1.57 1.69 1.82 1.95 2.04 2.08 2.10 2.06 2.03 2.11 2.20 2.29 2.17 2.11 1.88 1.72 1.80 1.93 1.98 2.06 2.13 2.13 2.52 2.51 2.61 2.76 2.68 2.49 2.87 2.76 2.54 2.76 2.97 3.27 3.48 3.18 2.70
0.84 0.81 0.89 1.01 1.05 1.16 1.26 1.38 1.52 1.69 1.86 1.85 1.98 1.96 1.83 1.92 2.11 2.22 2.14 2.03 2.01 1.88 1.89 1.86 1.91 2.03 2.20 2.38 2.67 2.67 2.68 2.77 2.67 2.68 2.85 2.71 2.50 2.52 2.62 3.10 3.48 3.65 3.25
0.75 0.74 0.74 0.77 0.77 0.89 1.15 1.29 1.45 1.61 1.66 1.63 1.58 1.51 1.58 1.76 1.92 1.92 1.86 1.99 2.06 2.06 2.07 2.05 2.05 2.02 2.11 2.33 2.57 2.61 2.62 2.74 2.76 2.78 2.92 2.90 2.66 2.68 2.71 3.05 3.40 3.62 3.71
0.73 0.71 0.81 0.83 0.81 0.90 1.10 1.14 1.20 1.40 1.48 1.46 1.35 1.34 1.41 1.52 1.62 1.65 1.66 1.80 1.89 1.96 1.91 1.88 1.88 1.90 1.99 2.14 2.24 2.20 2.29 2.35 2.52 2.46 2.60 2.74 2.87 2.85 2.87 3.09 3.27 3.52 3.79
0.66 0.65 0.76 0.91 1.05 1.16 1.11 1.00 1.04 1.09 1.22 1.27 1.26 1.30 1.33 1.32 1.31 1.36 1.47 1.56 1.61 1.66 1.56 1.61 1.65 1.64 1.67 1.80 1.78 1.78 1.94 2.12 2.31 2.47 2.61 2.52 2.65 2.70 2.72 2.93 3.18 3.44 3.70
0.67 0.70 0.80 0.86 0.90 1.04 1.18 1.02 0.99 1.07 1.18 1.24 1.31 1.41 1.43 1.35 1.29 1.31 1.37 1.37 1.32 1.35 1.35 1.43 1.48 1.48 1.53 1.54 1.53 1.64 1.77 1.91 2.09 2.28 2.31 2.23 2.38 2.40 2.57 2.68 2.85 3.10 3.37
0.64 0.68 0.82 0.98 0.98 0.97 1.06 1.00 0.97 1.05 1.20 1.43 1.66 1.68 1.60 1.53 1.44 1.33 1.31 1.29 1.23 1.30 1.33 1.43 1.50 1.50 1.55 1.59 1.73 1.83 1.89 1.97 1.96 1.94 1.92 1.89 1.98 2.13 2.41 2.51 2.60 2.80 3.05
0.71 0.66 0.77 0.96 1.06 1.08 1.09 1.04 1.08 1.14 1.29 1.55 1.71 1.78 1.81 1.73 1.64 1.49 1.38 1.32 1.32 1.29 1.35 1.46 1.55 1.62 1.59 1.50 1.72 1.86 1.80 1.87 1.86 1.76 1.61 1.51 1.60 1.75 1.94 1.90 2.17 2.41 2.61
0.81 0.75 0.76 0.83 1.00 1.09 1.16 1.19 1.26 1.31 1.38 1.41 1.47 1.63 1.73 1.73 1.66 1.47 1.38 1.41 1.40 1.36 1.34 1.33 1.43 1.42 1.19 1.32 1.53 1.66 1.68 1.76 1.79 1.68 1.55 1.41 1.42 1.48 1.57 1.62 1.73 1.92 2.13
0.78 0.74 0.77 0.81 0.89 0.93 1.02 1.27 1.29 1.26 1.29 1.37 1.48 1.63 1.67 1.62 1.55 1.39 1.37 1.38 1.37 1.39 1.40 1.37 1.40 1.38 1.32 1.41 1.42 1.42 1.52 1.64 1.64 1.69 1.71 1.42 1.18 1.35 1.35 1.44 1.46 1.53 1.68
0.69 0.70 0.77 0.83 0.85 0.81 0.81 0.93 1.07 1.19 1.26 1.32 1.41 1.51 1.54 1.59 1.64 1.56 1.45 1.46 1.46 1.42 1.44 1.45 1.43 1.49 1.48 1.51 1.40 1.44 1.42 1.52 1.59 1.61 1.58 1.55 1.47 1.39 1.39 1.43 1.43 1.30 1.37
0.63 0.74 0.85 0.82 0.81 0.81 0.81 0.91 1.07 1.21 1.35 1.40 1.44 1.46 1.55 1.70 1.73 1.61 1.55 1.58 1.56 1.47 1.45 1.45 1.41 1.41 1.50 1.58 1.48 1.47 1.43 1.54 1.57 1.55 1.50 1.46 1.46 1.51 1.39 1.44 1.43 1.33 1.29
0.73 0.70 0.69 0.68 0.74 0.86 0.95 1.02 1.19 1.39 1.49 1.50 1.58 1.65 1.69 1.80 1.91 1.93 1.86 1.78 1.74 1.67 1.64 1.56 1.52 1.50 1.53 1.54 1.35 1.31 1.27 1.38 1.45 1.52 1.43 1.32 1.25 1.32 1.29 1.39 1.48 1.35 1.30
0.73 0.73 0.77 0.79 0.84 0.89 1.07 1.27 1.37 1.46 1.54 1.58 1.61 1.79 1.88 1.99 2.15 2.32 2.23 2.15 2.07 2.03 1.99 1.89 1.79 1.75 1.76 1.66 1.37 1.25 1.20 1.34 1.47 1.45 1.33 1.26 1.22 1.17 1.16 1.21 1.29 1.35 1.44
0.79 0.86 0.97 1.02 0.95 0.96 1.11 1.29 1.40 1.48 1.63 1.67 1.74 1.79 1.93 2.02 2.18 2.55 2.54 2.56 2.54 2.37 2.28 2.17 2.07 2.01 1.97 1.76 1.49 1.36 1.39 1.45 1.50 1.52 1.47 1.44 1.30 1.18 1.14 1.10 1.15 1.28 1.30
0.82 0.88 1.03 1.12 1.15 1.21 1.34 1.52 1.58 1.64 1.72 1.86 1.98 2.03 2.10 2.26 2.38 2.53 2.58 2.62 2.58 2.45 2.32 2.21 2.04 2.03 1.99 1.88 1.61 1.45 1.45 1.49 1.50 1.54 1.54 1.41 1.28 1.20 1.18 1.21 1.28 1.28 1.26
0.89 1.00 1.10 1.28 1.39 1.45 1.57 1.72 1.83 1.92 2.02 2.15 2.26 2.29 2.32 2.34 2.40 2.55 2.57 2.58 2.56 2.43 2.34 2.27 2.13 2.12 2.17 2.07 1.92 1.75 1.68 1.71 1.66 1.61 1.60 1.46 1.33 1.23 1.19 1.19 1.18 1.18 1.26
1.07 1.14 1.27 1.43 1.49 1.59 1.67 1.79 2.01 2.20 2.27 2.28 2.27 2.26 2.30 2.41 2.50 2.49 2.48 2.53 2.57 2.56 2.53 2.48 2.48 2.42 2.38 2.29 2.19 2.06 2.00 2.05 2.08 2.01 1.93 1.84 1.69 1.52 1.45 1.39 1.38 1.41 1.44
1.17 1.29 1.40 1.52 1.60 1.75 1.90 2.00 2.17 2.38 2.55 2.50 2.41 2.41 2.48 2.53 2.52 2.49 2.43 2.48 2.41 2.36 2.33 2.36 2.41 2.34 2.37 2.35 2.14 2.06 2.05 2.10 2.15 2.04 1.95 2.01 1.99 1.86 1.79 1.71 1.67 1.65 1.62